COSMOS 1275 DEB

Satellite information

Favourite Embed

Satellite Type and Status

DEBRISIN ORBIT

Key statistics

Satellite COSMOS 1275 DEB at a glance.

Uptime

16208

Days in orbit

Revolutions

≈ 14.4

Per day

Orbit

LEO

Low Earth Orbit

Inclination

82.9

Latest

Satellite identification and parameters

Extended collection of information and parameters for COSMOS 1275 DEB.

Object identification

Identified? True

Debris? True

Object name: COSMOS 1275 DEB

International designator: 1981-053KN

Object number (NORAD): 17619

Object ID (CCSDS): 17619

Country: COMMONWEALTH OF INDEPENDENT STATES (CIS)

Current information (Y/N): Y

RCS size: SMALL

Orbital parameters

Period: 100.334 minutes

Inclination: 82.9428 deg

SMA: 7152.494 km

Apoapsis: 786.451 km

Periapsis: 762.268 km

RAAN: 217.4145 deg

Eccentricy: 0.00169049

Argument of periapsis: 139.6089 deg

Mean anomaly: 250.1887 deg

Mean motion: 14.35213392 rev/day

Mean motion (dot): 0.00007879 rev/day2

B* drag term: 0.0027442058 1/REarth

Two-line elements (TLE)

Creation date: Oct. 18, 2025, 2:17 a.m.

Reference frame: TEME

Reference center: EARTH

Epoch: Oct. 17, 2025, 6:54 p.m. UTC

TLE line 0: 0 COSMOS 1275 DEB

TLE line 1: 1 17619U 81053KN 25290.78778890 .00007879 00000-0 27442-2 0 9995

TLE line 2: 2 17619 82.9428 217.4145 0016905 139.6089 250.1887 14.35213392 80361

Live tracking on map

Real-time ground track for satellite COSMOS 1275 DEB.

In-orbit conjunctions

A list of the most updated potential collisions computed for object COSMOS 1275 DEB.

Target Orbit TCA Probability of collision Miss distance Type
NOAA 16 DEB SSO 2025-04-15 10:41:31 0.0001421648 79.0 (m) DEBRIS
CZ-6A DEB LEO 2024-11-01 06:35:52 0.0001280783 580.0 (m) DEBRIS
CZ-4C DEB SSO 2024-09-25 05:35:50 0.0004885084 106.0 (m) DEBRIS
CZ-6A DEB LEO 2024-09-22 23:42:25 0.0001016849 666.0 (m) DEBRIS
CZ-6A DEB LEO 2024-09-20 01:06:39 0.0002767949 635.0 (m) DEBRIS

Associated space launch

Navigation satellite providing location information for the Tsiklon-B navigation system

COSMOS 1275 DEB was lifted into orbit during the mission ‘Kosmos-3M | Parus 27’, on board a Kosmos-3M space rocket.

The launch took place on June 4, 1981, 3:41 p.m. from 132/2.

For more information about the launch, click the button.

Launch to space Kosmos-3M | Parus 27
Kosmos-3M | Parus 27

Agency: N/A

Status: Launch Successful

Launch date: June 4, 1981, 3:41 p.m. UTC

Rocket: Kosmos-3M

Launch pad: 132/2

Location: Plesetsk Cosmodrome, Russian Federation

...

Latest news about this satellite

There are no fresh news available about this satellite. Check back as we update our databases every day.


Newsletter sign-up

Weekly statistics, charts and insights to help you stay on top of the space industry.